N4MRV-1 Weather Reports


time (UTC)temp
C
wind
direction
speed
KPH
gust
KPH
rain 1hr
cm
rain 24hr
cm
rain mn
cm
humidity
%
barometer
mb
20260906100017 21 0.0 0.0 0.00 1.57 0.00 94 1012.9
20260906094517 21 0.0 0.0 0.00 1.57 0.00 95 1012.8
20260906093017 21 0.0 0.0 0.00 1.57 0.00 95 1012.6
20260906091517 21 0.0 0.0 0.00 1.57 0.00 95 1012.6
20260906090017 21 0.0 0.0 0.00 1.57 0.00 95 1012.5
20260906084517 21 0.0 0.0 0.00 1.57 0.00 95 1012.5
20260906083016 21 0.0 0.0 0.00 1.57 0.00 95 1012.4
20260906081517 21 0.0 0.0 0.00 1.57 0.00 95 1012.2
20260906080017 21 0.0 1.6 0.00 1.57 0.00 95 1012.3
20260906074517 22 0.0 1.6 0.00 1.57 0.00 95 1012.1
20260906073016 22 0.0 1.6 0.00 1.57 0.00 95 1012.1
20260906071516 22 0.0 3.2 0.00 1.57 0.00 95 1012.0
20260906070036 22 0.0 1.6 0.00 1.57 0.00 95 1012.0
20260906064516 22 0.0 3.2 0.00 1.57 0.00 95 1012.2
20260906063016 22 0.0 0.0 0.00 1.57 0.00 95 1012.1
20260906061516 22 0.0 0.0 0.00 1.57 0.00 95 1012.2
20260906060016 22 0.0 0.0 0.00 1.57 0.00 95 1012.2
20260906054516 22 0.0 0.0 0.00 1.57 0.00 95 1012.5
20260906053016 22 0.0 0.0 0.00 1.57 0.00 95 1012.4
20260906051516 22 0.0 0.0 0.00 1.57 0.00 95 1012.5
20260906050016 22 0.0 0.0 0.00 1.57 0.00 95 1012.6
20260906044516 22 0.0 0.0 0.00 1.57 0.00 95 1012.7
20260906043016 22 0.0 0.0 0.00 1.57 0.00 94 1012.8
20260906041516 22 0.0 0.0 0.00 1.57 0.00 94 1012.7
20260906040016 22 0.0 0.0 0.00 1.57 1.57 94 1012.5
20260906034537 22 0.0 0.0 0.00 1.57 1.57 94 1012.7
20260906033017 22 0.0 0.0 0.00 1.57 1.57 93 1012.7
20260906031537 22 0.0 0.0 0.00 1.57 1.57 94 1012.5
20260906030017 22 0.0 0.0 0.00 1.57 1.57 93 1012.8
20260906024517 22 0.0 0.0 0.00 1.57 1.57 93 1012.6
20260906023017 22 0.0 0.0 0.00 1.57 1.57 93 1012.7
20260906021537 22 0.0 0.0 0.00 1.57 1.57 93 1012.6
20260906020016 22 0.0 0.0 0.00 1.57 1.57 93 1012.6
20260906014516 23 0.0 0.0 0.00 1.57 1.57 93 1012.5
20260906013016 23 0.0 0.0 0.00 1.57 1.57 93 1012.4
20260906011516 23 0.0 0.0 0.00 1.57 1.57 93 1012.3
20260906010016 23 0.0 0.0 0.00 1.57 1.57 93 1012.1
20260906004516 23 0.0 0.0 0.00 1.57 1.57 92 1011.7
20260906003016 23 0.0 1.6 0.00 1.57 1.57 92 1011.5
20260906001557 23 0.0 1.6 0.00 1.57 1.57 91 1011.3
20260906000016 23 0.0 0.0 0.00 1.57 1.57 91 1011.1
20260905234516 23 0.0 0.0 0.00 1.57 1.57 90 1010.9
20260905233036 23 0.0 0.0 0.00 1.57 1.57 90 1010.9
20260905231516 24 0.0 0.0 0.00 1.60 1.57 90 1010.9
20260905230016 24 0.0 0.0 0.00 1.60 1.57 89 1011.3
20260905224516 24 0.0 0.0 0.00 1.60 1.57 89 1011.5
20260905223016 24 0.0 1.6 0.00 1.60 1.57 89 1011.2
20260905221516 24 0.0 0.0 0.00 1.60 1.57 90 1011.2
20260905220016 24 0.0 0.0 0.00 1.60 1.57 89 1010.9
20260905214536 24 0.0 0.0 0.00 1.65 1.57 90 1010.9
20260905213016 24 0.0 1.6 0.00 1.78 1.57 89 1011.0
20260905211516 24 0.0 3.2 0.00 3.43 1.57 89 1011.0
20260905210016 23 0.0 3.2 0.00 3.81 1.57 89 1011.2
20260905204516 23 0.0 3.2 0.00 3.81 1.57 91 1011.1
20260905203016 23 315 1.6 6.4 0.00 3.81 1.57 89 1011.0
20260905201516 23 0.0 3.2 0.00 3.81 1.57 92 1011.0
20260905200016 23 0.0 3.2 0.00 3.81 1.57 94 1011.1
20260905194516 23 0.0 4.8 0.00 3.81 1.57 94 1011.3
20260905193015 23 0.0 1.6 0.00 3.81 1.57 94 1011.5
20260905191516 23 0.0 1.6 0.00 3.81 1.57 94 1011.9
20260905190016 23 0.0 1.6 0.00 3.81 1.57 93 1012.1
20260905184515 23 0.0 3.2 0.00 3.81 1.57 93 1012.2
20260905183016 23 0.0 1.6 0.00 3.81 1.57 93 1011.9
20260905181516 23 0.0 1.6 0.00 3.81 1.57 93 1011.8
20260905180016 23 203 1.6 3.2 0.03 3.81 1.57 93 1011.6
20260905174535 23 0.0 3.2 0.08 3.81 1.57 93 1011.9
20260905173015 23 0.0 1.6 1.35 3.81 1.57 92 1012.0
20260905171516 23 0.0 1.6 1.57 3.81 1.57 90 1012.3
20260905170036 23 180 1.6 9.7 1.55 3.78 1.55 88 1013.0
20260905164515 25 293 3.2 14.5 1.50 3.73 1.50 87 1013.8
20260905163015 26 315 1.6 6.4 0.23 2.46 0.23 86 1014.1
20260905161515 26 293 1.6 6.4 0.00 2.24 0.00 83 1013.0
20260905160015 26 0.0 3.2 0.00 2.24 0.00 84 1012.5
20260905154515 26 0.0 3.2 0.00 2.24 0.00 85 1012.6
20260905153015 26 0.0 4.8 0.00 2.24 0.00 84 1012.3
20260905151515 26 0.0 3.2 0.00 2.24 0.00 84 1012.6
20260905150015 26 293 1.6 4.8 0.00 2.24 0.00 84 1012.7
20260905144515 25 45 1.6 4.8 0.00 2.24 0.00 86 1012.5
20260905143015 25 0 1.6 4.8 0.00 2.24 0.00 92 1012.5
20260905141515 23 45 1.6 8.0 0.00 2.24 0.00 95 1012.5
20260905140017 23 68 1.6 4.8 0.00 2.24 0.00 96 1012.1
20260905134517 22 0.0 0.0 0.00 2.24 0.00 96 1012.1
20260905133017 22 0.0 0.0 0.00 2.24 0.00 96 1012.2
20260905131517 22 0.0 0.0 0.00 2.24 0.00 96 1012.1
20260905130017 22 0.0 0.0 0.00 2.24 0.00 96 1011.8
20260905124517 22 0.0 0.0 0.00 2.24 0.00 96 1011.8
20260905123017 21 0.0 0.0 0.00 2.24 0.00 96 1012.2
20260905121517 21 0.0 0.0 0.00 2.24 0.00 96 1012.0
20260905120017 20 0.0 0.0 0.00 2.24 0.00 96 1012.0
20260905114517 20 0.0 0.0 0.00 2.24 0.00 95 1012.0
20260905113017 20 0.0 0.0 0.00 2.24 0.00 95 1012.0
20260905111517 20 0.0 0.0 0.00 2.24 0.00 95 1011.7
20260905110016 20 0.0 0.0 0.00 2.24 0.00 95 1011.6
20260905104516 20 0.0 0.0 0.00 2.24 0.00 95 1011.5
20260905103017 20 0.0 0.0 0.00 2.24 0.00 95 1011.4
20260905101517 20 0.0 0.0 0.00 2.24 0.00 95 1011.2